Year,Month,Day,Hour,Minute,Value (Times are PST for temperature in C)
2012,09,11,00,00,11.40
2012,09,11,00,01,11.30
2012,09,11,00,02,11.30
2012,09,11,00,03,11.30
2012,09,11,00,04,11.30
2012,09,11,00,05,11.30
2012,09,11,00,06,11.30
2012,09,11,00,07,11.30
2012,09,11,00,08,11.30
2012,09,11,00,09,11.30
2012,09,11,00,10,11.30
2012,09,11,00,11,11.30
2012,09,11,00,12,11.30
2012,09,11,00,13,11.20
2012,09,11,00,14,11.20
2012,09,11,00,15,11.20
2012,09,11,00,16,11.20
2012,09,11,00,17,11.20
2012,09,11,00,18,11.20
2012,09,11,00,19,11.20
2012,09,11,00,20,11.20
2012,09,11,00,21,11.10
2012,09,11,00,22,11.10
2012,09,11,00,23,11.10
2012,09,11,00,24,11.10
2012,09,11,00,25,11.10
2012,09,11,00,26,11.10
2012,09,11,00,27,11.10
2012,09,11,00,28,11.10
2012,09,11,00,29,11.10
2012,09,11,00,30,11.10
2012,09,11,00,31,11.10
2012,09,11,00,32,11.10
2012,09,11,00,33,11.10
2012,09,11,00,34,11.10
2012,09,11,00,35,11.10
2012,09,11,00,36,11.10
2012,09,11,00,37,11.10
2012,09,11,00,38,11.10
2012,09,11,00,39,11.10
2012,09,11,00,40,11.10
2012,09,11,00,41,11.10
2012,09,11,00,42,11.00
2012,09,11,00,43,10.90
2012,09,11,00,44,10.90
2012,09,11,00,45,10.90
2012,09,11,00,46,10.90
2012,09,11,00,47,10.90
2012,09,11,00,48,10.90
2012,09,11,00,49,10.90
2012,09,11,00,50,10.90
2012,09,11,00,51,10.90
2012,09,11,00,52,10.90
2012,09,11,00,53,10.90
2012,09,11,00,54,10.90
2012,09,11,00,55,10.90
2012,09,11,00,56,10.90
2012,09,11,00,57,10.90
2012,09,11,00,58,10.90
2012,09,11,00,59,10.90
2012,09,11,01,00,10.90
2012,09,11,01,01,10.90
2012,09,11,01,02,10.90
2012,09,11,01,03,10.90
2012,09,11,01,04,10.90
2012,09,11,01,05,10.90
2012,09,11,01,06,10.90
2012,09,11,01,07,10.90
2012,09,11,01,08,10.90
2012,09,11,01,09,10.90
2012,09,11,01,10,10.90
2012,09,11,01,11,10.90
2012,09,11,01,12,10.90
2012,09,11,01,13,10.90
2012,09,11,01,14,10.90
2012,09,11,01,15,10.90
2012,09,11,01,16,10.80
2012,09,11,01,17,10.80
2012,09,11,01,18,10.80
2012,09,11,01,19,10.80
2012,09,11,01,20,10.80
2012,09,11,01,21,10.70
2012,09,11,01,22,10.70
2012,09,11,01,23,10.70
2012,09,11,01,24,10.70
2012,09,11,01,25,10.70
2012,09,11,01,26,10.60
2012,09,11,01,27,10.60
2012,09,11,01,28,10.60
2012,09,11,01,29,10.60
2012,09,11,01,30,10.60
2012,09,11,01,31,10.60
2012,09,11,01,32,10.60
2012,09,11,01,33,10.60
2012,09,11,01,34,10.60
2012,09,11,01,35,10.60
2012,09,11,01,36,10.60
2012,09,11,01,37,10.60
2012,09,11,01,38,10.50
2012,09,11,01,39,10.40
2012,09,11,01,40,10.40
2012,09,11,01,41,10.40
2012,09,11,01,42,10.40
2012,09,11,01,43,10.40
2012,09,11,01,44,10.40
2012,09,11,01,45,10.40
2012,09,11,01,46,10.40
2012,09,11,01,47,10.40
2012,09,11,01,48,10.40
2012,09,11,01,49,10.40
2012,09,11,01,50,10.40
2012,09,11,01,51,10.40
2012,09,11,01,52,10.40
2012,09,11,01,53,10.30
2012,09,11,01,54,10.30
2012,09,11,01,55,10.30
2012,09,11,01,56,10.30
2012,09,11,01,57,10.30
2012,09,11,01,58,10.30
2012,09,11,01,59,10.20
2012,09,11,02,00,10.20
2012,09,11,02,01,10.20
2012,09,11,02,02,10.20
2012,09,11,02,03,10.20
2012,09,11,02,04,10.20
2012,09,11,02,05,10.10
2012,09,11,02,06,10.10
2012,09,11,02,07,10.10
2012,09,11,02,08,10.10
2012,09,11,02,09,9.90
2012,09,11,02,10,9.90
2012,09,11,02,11,9.90
2012,09,11,02,12,9.90
2012,09,11,02,13,9.80
2012,09,11,02,14,9.80
2012,09,11,02,15,9.80
2012,09,11,02,16,9.70
2012,09,11,02,17,9.70
2012,09,11,02,18,9.70
2012,09,11,02,19,9.60
2012,09,11,02,20,9.60
2012,09,11,02,21,9.60
2012,09,11,02,22,9.50
2012,09,11,02,23,9.50
2012,09,11,02,24,9.40
2012,09,11,02,25,9.40
2012,09,11,02,26,9.30
2012,09,11,02,27,9.30
2012,09,11,02,28,9.20
2012,09,11,02,29,9.20
2012,09,11,02,30,9.20
2012,09,11,02,31,9.10
2012,09,11,02,32,9.10
2012,09,11,02,33,9.10
2012,09,11,02,34,9.00
2012,09,11,02,35,9.00
2012,09,11,02,36,9.00
2012,09,11,02,37,9.00
2012,09,11,02,38,9.00
2012,09,11,02,39,8.90
2012,09,11,02,40,8.90
2012,09,11,02,41,8.90
2012,09,11,02,42,8.90
2012,09,11,02,43,8.90
2012,09,11,02,44,8.90
2012,09,11,02,45,8.90
2012,09,11,02,46,8.90
2012,09,11,02,47,8.80
2012,09,11,02,48,8.80
2012,09,11,02,49,8.80
2012,09,11,02,50,8.80
2012,09,11,02,51,8.80
2012,09,11,02,52,8.70
2012,09,11,02,53,8.70
2012,09,11,02,54,8.70
2012,09,11,02,55,8.70
2012,09,11,02,56,8.70
2012,09,11,02,57,8.60
2012,09,11,02,58,8.60
2012,09,11,02,59,8.60
2012,09,11,03,00,8.60
2012,09,11,03,01,8.50
2012,09,11,03,02,8.50
2012,09,11,03,03,8.50
2012,09,11,03,04,8.50
2012,09,11,03,05,8.40
2012,09,11,03,06,8.40
2012,09,11,03,07,8.30
2012,09,11,03,08,8.30
2012,09,11,03,09,8.20
2012,09,11,03,10,8.20
2012,09,11,03,11,8.20
2012,09,11,03,12,8.20
2012,09,11,03,13,8.20
2012,09,11,03,14,8.10
2012,09,11,03,15,8.10
2012,09,11,03,16,8.10
2012,09,11,03,17,8.10
2012,09,11,03,18,8.10
2012,09,11,03,19,8.00
2012,09,11,03,20,8.00
2012,09,11,03,21,8.00
2012,09,11,03,22,8.00
2012,09,11,03,23,7.90
2012,09,11,03,24,7.90
2012,09,11,03,25,7.90
2012,09,11,03,26,7.90
2012,09,11,03,27,7.90
2012,09,11,03,28,7.90
2012,09,11,03,29,7.90
2012,09,11,03,30,7.90
2012,09,11,03,31,7.90
2012,09,11,03,32,7.90
2012,09,11,03,33,7.80
2012,09,11,03,34,7.80
2012,09,11,03,35,7.80
2012,09,11,03,36,7.80
2012,09,11,03,37,7.80
2012,09,11,03,38,7.80
2012,09,11,03,39,7.80
2012,09,11,03,40,7.80
2012,09,11,03,41,7.80
2012,09,11,03,42,7.80
2012,09,11,03,43,7.80
2012,09,11,03,44,7.80
2012,09,11,03,45,7.80
2012,09,11,03,46,7.80
2012,09,11,03,47,7.80
2012,09,11,03,48,7.70
2012,09,11,03,49,7.70
2012,09,11,03,50,7.60
2012,09,11,03,51,7.60
2012,09,11,03,52,7.50
2012,09,11,03,53,7.50
2012,09,11,03,54,7.50
2012,09,11,03,55,7.40
2012,09,11,03,56,7.40
2012,09,11,03,57,7.40
2012,09,11,03,58,7.30
2012,09,11,03,59,7.30
2012,09,11,04,00,7.30
2012,09,11,04,01,7.30
2012,09,11,04,02,7.30
2012,09,11,04,03,7.20
2012,09,11,04,04,7.20
2012,09,11,04,05,7.20
2012,09,11,04,06,7.20
2012,09,11,04,07,7.20
2012,09,11,04,08,7.20
2012,09,11,04,09,7.20
2012,09,11,04,10,7.20
2012,09,11,04,11,7.20
2012,09,11,04,12,7.20
2012,09,11,04,13,7.20
2012,09,11,04,14,7.20
2012,09,11,04,15,7.20
2012,09,11,04,16,7.20
2012,09,11,04,17,7.20
2012,09,11,04,18,7.20
2012,09,11,04,19,7.20
2012,09,11,04,20,7.20
2012,09,11,04,21,7.20
2012,09,11,04,22,7.20
2012,09,11,04,23,7.20
2012,09,11,04,24,7.20
2012,09,11,04,25,7.20
2012,09,11,04,26,7.20
2012,09,11,04,27,7.20
2012,09,11,04,28,7.10
2012,09,11,04,29,7.10
2012,09,11,04,30,7.10
2012,09,11,04,31,7.10
2012,09,11,04,32,7.00
2012,09,11,04,33,7.00
2012,09,11,04,34,7.00
2012,09,11,04,35,7.00
2012,09,11,04,36,7.00
2012,09,11,04,37,7.00
2012,09,11,04,38,7.00
2012,09,11,04,39,7.00
2012,09,11,04,40,7.00
2012,09,11,04,41,7.00
2012,09,11,04,42,7.00
2012,09,11,04,43,7.00
2012,09,11,04,44,7.00
2012,09,11,04,45,7.00
2012,09,11,04,46,6.90
2012,09,11,04,47,6.90
2012,09,11,04,48,6.90
2012,09,11,04,49,6.80
2012,09,11,04,50,6.80
2012,09,11,04,51,6.80
2012,09,11,04,52,6.80
2012,09,11,04,53,6.80
2012,09,11,04,54,6.80
2012,09,11,04,55,6.80
2012,09,11,04,56,6.80
2012,09,11,04,57,6.80
2012,09,11,04,58,6.70
2012,09,11,04,59,6.70
2012,09,11,05,00,6.70
2012,09,11,05,01,6.70
2012,09,11,05,02,6.70
2012,09,11,05,03,6.70
2012,09,11,05,04,6.70
2012,09,11,05,05,6.70
2012,09,11,05,06,6.70
2012,09,11,05,07,6.70
2012,09,11,05,08,6.70
2012,09,11,05,09,6.70
2012,09,11,05,10,6.70
2012,09,11,05,11,6.70
2012,09,11,05,12,6.80
2012,09,11,05,13,6.80
2012,09,11,05,14,6.80
2012,09,11,05,15,6.80
2012,09,11,05,16,6.80
2012,09,11,05,17,6.80
2012,09,11,05,18,6.80
2012,09,11,05,19,6.80
2012,09,11,05,20,6.80
2012,09,11,05,21,6.80
2012,09,11,05,22,6.80
2012,09,11,05,23,6.80
2012,09,11,05,24,6.90
2012,09,11,05,25,6.90
2012,09,11,05,26,6.90
2012,09,11,05,27,6.90
2012,09,11,05,28,6.90
2012,09,11,05,29,7.00
2012,09,11,05,30,7.00
2012,09,11,05,31,7.00
2012,09,11,05,32,7.00
2012,09,11,05,33,7.00
2012,09,11,05,34,7.00
2012,09,11,05,35,7.00
2012,09,11,05,36,7.00
2012,09,11,05,37,7.00
2012,09,11,05,38,7.00
2012,09,11,05,39,7.00
2012,09,11,05,40,7.00
2012,09,11,05,41,7.00
2012,09,11,05,42,7.00
2012,09,11,05,43,7.00
2012,09,11,05,44,7.00
2012,09,11,05,45,7.00
2012,09,11,05,46,7.00
2012,09,11,05,47,7.00
2012,09,11,05,48,7.00
2012,09,11,05,49,7.00
2012,09,11,05,50,7.00
2012,09,11,05,51,7.00
2012,09,11,05,52,7.00
2012,09,11,05,53,7.00
2012,09,11,05,54,7.00
2012,09,11,05,55,7.00
2012,09,11,05,56,7.00
2012,09,11,05,57,7.00
2012,09,11,05,58,7.00
2012,09,11,05,59,7.00
2012,09,11,06,00,7.00
2012,09,11,06,01,7.00
2012,09,11,06,02,7.00
2012,09,11,06,03,7.00
2012,09,11,06,04,7.00
2012,09,11,06,05,7.00
2012,09,11,06,06,6.90
2012,09,11,06,07,6.90
2012,09,11,06,08,6.90
2012,09,11,06,09,6.90
2012,09,11,06,10,6.90
2012,09,11,06,11,6.90
2012,09,11,06,12,6.90
2012,09,11,06,13,6.90
2012,09,11,06,14,6.90
2012,09,11,06,15,6.90
2012,09,11,06,16,6.90
2012,09,11,06,17,6.90
2012,09,11,06,18,6.90
2012,09,11,06,19,6.90
2012,09,11,06,20,6.90
2012,09,11,06,21,6.90
2012,09,11,06,22,6.90
2012,09,11,06,23,6.90
2012,09,11,06,24,6.90
2012,09,11,06,25,6.90
2012,09,11,06,26,6.90
2012,09,11,06,27,6.90
2012,09,11,06,28,6.90
2012,09,11,06,29,6.90
2012,09,11,06,30,6.80
2012,09,11,06,31,6.80
2012,09,11,06,32,6.80
2012,09,11,06,33,6.80
2012,09,11,06,34,6.80
2012,09,11,06,35,6.80
2012,09,11,06,36,6.70
2012,09,11,06,37,6.70
2012,09,11,06,38,6.70
2012,09,11,06,39,6.70
2012,09,11,06,40,6.70
2012,09,11,06,41,6.60
2012,09,11,06,42,6.60
2012,09,11,06,43,6.60
2012,09,11,06,44,6.60
2012,09,11,06,45,6.60
2012,09,11,06,46,6.60
2012,09,11,06,47,6.60
2012,09,11,06,48,6.60
2012,09,11,06,49,6.60
2012,09,11,06,50,6.60
2012,09,11,06,51,6.60
2012,09,11,06,52,6.60
2012,09,11,06,53,6.60
2012,09,11,06,54,6.60
2012,09,11,06,55,6.60
2012,09,11,06,56,6.60
2012,09,11,06,57,6.60
2012,09,11,06,58,6.60
2012,09,11,06,59,6.60
2012,09,11,07,00,6.60
2012,09,11,07,01,6.60
2012,09,11,07,02,6.60
2012,09,11,07,03,6.60
2012,09,11,07,04,6.60
2012,09,11,07,05,6.60
2012,09,11,07,06,6.60
2012,09,11,07,07,6.50
2012,09,11,07,08,6.40
2012,09,11,07,09,6.40
2012,09,11,07,10,6.40
2012,09,11,07,11,6.40
2012,09,11,07,12,6.40
2012,09,11,07,13,6.40
2012,09,11,07,14,6.40
2012,09,11,07,15,6.40
2012,09,11,07,16,6.40
2012,09,11,07,17,6.40
2012,09,11,07,18,6.40
2012,09,11,07,19,6.40
2012,09,11,07,20,6.40
2012,09,11,07,21,6.40
2012,09,11,07,22,6.40
2012,09,11,07,23,6.60
2012,09,11,07,24,6.60
2012,09,11,07,25,6.60
2012,09,11,07,26,6.60
2012,09,11,07,27,6.60
2012,09,11,07,28,6.60
2012,09,11,07,29,6.60
2012,09,11,07,30,6.60
2012,09,11,07,31,6.60
2012,09,11,07,32,6.70
2012,09,11,07,33,6.70
2012,09,11,07,34,6.70
2012,09,11,07,35,6.70
2012,09,11,07,36,6.80
2012,09,11,07,37,6.80
2012,09,11,07,38,6.80
2012,09,11,07,39,6.80
2012,09,11,07,40,6.80
2012,09,11,07,41,6.80
2012,09,11,07,42,6.80
2012,09,11,07,43,6.90
2012,09,11,07,44,6.90
2012,09,11,07,45,6.90
2012,09,11,07,46,6.90
2012,09,11,07,47,7.00
2012,09,11,07,48,7.00
2012,09,11,07,49,7.10
2012,09,11,07,50,7.10
2012,09,11,07,51,7.20
2012,09,11,07,52,7.30
2012,09,11,07,53,7.30
2012,09,11,07,54,7.30
2012,09,11,07,55,7.40
2012,09,11,07,56,7.40
2012,09,11,07,57,7.50
2012,09,11,07,58,7.60
2012,09,11,07,59,7.60
2012,09,11,08,00,7.70
2012,09,11,08,01,7.70
2012,09,11,08,02,7.80
2012,09,11,08,03,7.80
2012,09,11,08,04,7.90
2012,09,11,08,05,8.00
2012,09,11,08,06,8.10
2012,09,11,08,07,8.20
2012,09,11,08,08,8.30
2012,09,11,08,09,8.40
2012,09,11,08,10,8.50
2012,09,11,08,11,8.70
2012,09,11,08,12,8.70
2012,09,11,08,13,8.90
2012,09,11,08,14,9.00
2012,09,11,08,15,9.10
2012,09,11,08,16,9.20
2012,09,11,08,17,9.30
2012,09,11,08,18,9.40
2012,09,11,08,19,9.40
2012,09,11,08,20,9.50
2012,09,11,08,21,9.50
2012,09,11,08,22,9.50
2012,09,11,08,23,9.60
2012,09,11,08,24,9.60
2012,09,11,08,25,9.60
2012,09,11,08,26,9.60
2012,09,11,08,27,9.70
2012,09,11,08,28,9.70
2012,09,11,08,29,9.70
2012,09,11,08,30,9.70
2012,09,11,08,31,9.70
2012,09,11,08,32,9.80
2012,09,11,08,33,9.80
2012,09,11,08,34,9.90
2012,09,11,08,35,9.90
2012,09,11,08,36,9.90
2012,09,11,08,37,10.00
2012,09,11,08,38,10.10
2012,09,11,08,39,10.20
2012,09,11,08,40,10.30
2012,09,11,08,41,10.40
2012,09,11,08,42,10.50
2012,09,11,08,43,10.60
2012,09,11,08,44,10.70
2012,09,11,08,45,10.80
2012,09,11,08,46,11.00
2012,09,11,08,47,11.10
2012,09,11,08,48,11.20
2012,09,11,08,49,11.30
2012,09,11,08,50,11.40
2012,09,11,08,51,11.50
2012,09,11,08,52,11.60
2012,09,11,08,53,11.60
2012,09,11,08,54,11.60
2012,09,11,08,55,11.60
2012,09,11,08,56,11.70
2012,09,11,08,57,11.80
2012,09,11,08,58,11.80
2012,09,11,08,59,11.80
2012,09,11,09,00,11.90
2012,09,11,09,01,12.00
2012,09,11,09,02,12.00
2012,09,11,09,03,12.10
2012,09,11,09,04,12.10
2012,09,11,09,05,12.20
2012,09,11,09,06,12.20
2012,09,11,09,07,12.20
2012,09,11,09,08,12.20
2012,09,11,09,09,12.30
2012,09,11,09,10,12.30
2012,09,11,09,11,12.30
2012,09,11,09,12,12.30
2012,09,11,09,13,12.30
2012,09,11,09,14,12.30
2012,09,11,09,15,12.40
2012,09,11,09,16,12.50
2012,09,11,09,17,12.50
2012,09,11,09,18,12.50
2012,09,11,09,19,12.60
2012,09,11,09,20,12.60
2012,09,11,09,21,12.70
2012,09,11,09,22,12.70
2012,09,11,09,23,12.70
2012,09,11,09,24,12.80
2012,09,11,09,25,12.80
2012,09,11,09,26,12.80
2012,09,11,09,27,12.80
2012,09,11,09,28,12.80
2012,09,11,09,29,12.80
2012,09,11,09,30,12.90
2012,09,11,09,31,13.10
2012,09,11,09,32,13.10
2012,09,11,09,33,13.20
2012,09,11,09,34,13.30
2012,09,11,09,35,13.30
2012,09,11,09,36,13.40
2012,09,11,09,37,13.50
2012,09,11,09,38,13.60
2012,09,11,09,39,13.60
2012,09,11,09,40,13.70
2012,09,11,09,41,13.70
2012,09,11,09,42,13.70
2012,09,11,09,43,13.80
2012,09,11,09,44,13.80
2012,09,11,09,45,13.90
2012,09,11,09,46,13.90
2012,09,11,09,47,14.00
2012,09,11,09,48,14.00
2012,09,11,09,49,13.90
2012,09,11,09,50,14.00
2012,09,11,09,51,14.10
2012,09,11,09,52,14.20
2012,09,11,09,53,14.30
2012,09,11,09,54,14.40
2012,09,11,09,55,14.40
2012,09,11,09,56,14.50
2012,09,11,09,57,14.40
2012,09,11,09,58,14.40
2012,09,11,09,59,14.20
2012,09,11,10,00,14.20
2012,09,11,10,01,14.10
2012,09,11,10,02,14.10
2012,09,11,10,03,14.10
2012,09,11,10,04,14.20
2012,09,11,10,05,14.40
2012,09,11,10,06,14.50
2012,09,11,10,07,14.60
2012,09,11,10,08,14.70
2012,09,11,10,09,14.80
2012,09,11,10,10,14.80
2012,09,11,10,11,14.90
2012,09,11,10,12,14.90
2012,09,11,10,13,14.80
2012,09,11,10,14,14.70
2012,09,11,10,15,14.70
2012,09,11,10,16,14.70
2012,09,11,10,17,14.70
2012,09,11,10,18,14.70
2012,09,11,10,19,14.70
2012,09,11,10,20,14.60
2012,09,11,10,21,14.60
2012,09,11,10,22,14.60
2012,09,11,10,23,14.50
2012,09,11,10,24,14.50
2012,09,11,10,25,14.50
2012,09,11,10,26,14.50
2012,09,11,10,27,14.40
2012,09,11,10,28,14.40
2012,09,11,10,29,14.30
2012,09,11,10,30,14.20
2012,09,11,10,31,14.20
2012,09,11,10,32,14.20
2012,09,11,10,33,14.20
2012,09,11,10,34,14.30
2012,09,11,10,35,14.40
2012,09,11,10,36,14.50
2012,09,11,10,37,14.50
2012,09,11,10,38,14.60
2012,09,11,10,39,14.70
2012,09,11,10,40,14.80
2012,09,11,10,41,14.80
2012,09,11,10,42,14.80
2012,09,11,10,43,14.70
2012,09,11,10,44,14.50
2012,09,11,10,45,14.40
2012,09,11,10,46,14.20
2012,09,11,10,47,14.20
2012,09,11,10,48,14.10
2012,09,11,10,49,14.10
2012,09,11,10,50,14.20
2012,09,11,10,51,14.20
2012,09,11,10,52,14.40
2012,09,11,10,53,14.50
2012,09,11,10,54,14.50
2012,09,11,10,55,14.50
2012,09,11,10,56,14.50
2012,09,11,10,57,14.60
2012,09,11,10,58,14.70
2012,09,11,10,59,14.80
2012,09,11,11,00,14.80
2012,09,11,11,01,14.80
2012,09,11,11,02,14.80
2012,09,11,11,03,14.70
2012,09,11,11,04,14.70
2012,09,11,11,05,14.60
2012,09,11,11,06,14.60
2012,09,11,11,07,14.70
2012,09,11,11,08,14.80
2012,09,11,11,09,14.90
2012,09,11,11,10,15.00
2012,09,11,11,11,15.10
2012,09,11,11,12,15.20
2012,09,11,11,13,15.10
2012,09,11,11,14,15.10
2012,09,11,11,15,15.20
2012,09,11,11,16,15.20
2012,09,11,11,17,15.30
2012,09,11,11,18,15.30
2012,09,11,11,19,15.30
2012,09,11,11,20,15.30
2012,09,11,11,21,15.20
2012,09,11,11,22,15.10
2012,09,11,11,23,15.00
2012,09,11,11,24,15.00
2012,09,11,11,25,15.00
2012,09,11,11,26,15.00
2012,09,11,11,27,15.00
2012,09,11,11,28,15.00
2012,09,11,11,29,15.00
2012,09,11,11,30,15.10
2012,09,11,11,31,15.00
2012,09,11,11,32,15.00
2012,09,11,11,33,15.00
2012,09,11,11,34,15.00
2012,09,11,11,35,14.90
2012,09,11,11,36,14.90
2012,09,11,11,37,14.90
2012,09,11,11,38,15.00
2012,09,11,11,39,15.10
2012,09,11,11,40,15.10
2012,09,11,11,41,15.10
2012,09,11,11,42,15.10
2012,09,11,11,43,15.10
2012,09,11,11,44,15.20
2012,09,11,11,45,15.30
2012,09,11,11,46,15.40
2012,09,11,11,47,15.40
2012,09,11,11,48,15.50
2012,09,11,11,49,15.50
2012,09,11,11,50,15.50
2012,09,11,11,51,15.40
2012,09,11,11,52,15.40
2012,09,11,11,53,15.30
2012,09,11,11,54,15.30
2012,09,11,11,55,15.30
2012,09,11,11,56,15.50
2012,09,11,11,57,15.60
2012,09,11,11,58,15.70
2012,09,11,11,59,15.80
2012,09,11,12,00,15.80
2012,09,11,12,01,15.80
2012,09,11,12,02,15.70
2012,09,11,12,03,15.70
2012,09,11,12,04,15.70
2012,09,11,12,05,15.80
2012,09,11,12,06,15.80
2012,09,11,12,07,15.70
2012,09,11,12,08,15.60
2012,09,11,12,09,15.60
2012,09,11,12,10,15.70
2012,09,11,12,11,15.80
2012,09,11,12,12,15.80
2012,09,11,12,13,15.90
2012,09,11,12,14,15.90
2012,09,11,12,15,15.90
2012,09,11,12,16,15.80
2012,09,11,12,17,15.80
2012,09,11,12,18,15.80
2012,09,11,12,19,15.90
2012,09,11,12,20,16.10
2012,09,11,12,21,16.30
2012,09,11,12,22,16.40
2012,09,11,12,23,16.40
2012,09,11,12,24,16.60
2012,09,11,12,25,16.60
2012,09,11,12,26,16.60
2012,09,11,12,27,16.70
2012,09,11,12,28,16.80
2012,09,11,12,29,16.90
2012,09,11,12,30,16.90
2012,09,11,12,31,16.90
2012,09,11,12,32,16.80
2012,09,11,12,33,16.60
2012,09,11,12,34,16.40
2012,09,11,12,35,16.20
2012,09,11,12,36,15.90
2012,09,11,12,37,15.70
2012,09,11,12,38,15.60
2012,09,11,12,39,15.50
2012,09,11,12,40,15.40
2012,09,11,12,41,15.30
2012,09,11,12,42,15.20
2012,09,11,12,43,15.20
2012,09,11,12,44,15.20
2012,09,11,12,45,15.10
2012,09,11,12,46,15.10
2012,09,11,12,47,15.20
2012,09,11,12,48,15.30
2012,09,11,12,49,15.20
2012,09,11,12,50,15.20
2012,09,11,12,51,15.30
2012,09,11,12,52,15.30
2012,09,11,12,53,15.40
2012,09,11,12,54,15.50
2012,09,11,12,55,15.60
2012,09,11,12,56,15.60
2012,09,11,12,57,15.60
2012,09,11,12,58,15.60
2012,09,11,12,59,15.60
2012,09,11,13,00,15.50
2012,09,11,13,01,15.40
2012,09,11,13,02,15.40
2012,09,11,13,03,15.50
2012,09,11,13,04,15.50
2012,09,11,13,05,15.60
2012,09,11,13,06,15.70
2012,09,11,13,07,15.80
2012,09,11,13,08,15.80
2012,09,11,13,09,15.80
2012,09,11,13,10,15.80
2012,09,11,13,11,15.80
2012,09,11,13,12,15.80
2012,09,11,13,13,15.80
2012,09,11,13,14,15.80
2012,09,11,13,15,15.70
2012,09,11,13,16,15.60
2012,09,11,13,17,15.50
2012,09,11,13,18,15.50
2012,09,11,13,19,15.60
2012,09,11,13,20,15.70
2012,09,11,13,21,15.90
2012,09,11,13,22,16.10
2012,09,11,13,23,16.30
2012,09,11,13,24,16.40
2012,09,11,13,25,16.40
2012,09,11,13,26,16.40
2012,09,11,13,27,16.40
2012,09,11,13,28,16.30
2012,09,11,13,29,16.30
2012,09,11,13,30,16.30
2012,09,11,13,31,16.40
2012,09,11,13,32,16.30
2012,09,11,13,33,16.20
2012,09,11,13,34,16.10
2012,09,11,13,35,16.10
2012,09,11,13,36,16.20
2012,09,11,13,37,16.30
2012,09,11,13,38,16.30
2012,09,11,13,39,16.40
2012,09,11,13,40,16.40
2012,09,11,13,41,16.40
2012,09,11,13,42,16.40
2012,09,11,13,43,16.40
2012,09,11,13,44,16.30
2012,09,11,13,45,16.20
2012,09,11,13,46,16.20
2012,09,11,13,47,16.10
2012,09,11,13,48,16.10
2012,09,11,13,49,16.10
2012,09,11,13,50,16.10
2012,09,11,13,51,16.10
2012,09,11,13,52,16.00
2012,09,11,13,53,15.90
2012,09,11,13,54,15.90
2012,09,11,13,55,15.80
2012,09,11,13,56,15.80
2012,09,11,13,57,15.70
2012,09,11,13,58,15.70
2012,09,11,13,59,15.70
2012,09,11,14,00,15.80
2012,09,11,14,01,15.90
2012,09,11,14,02,16.10
2012,09,11,14,03,16.10
2012,09,11,14,04,16.20
2012,09,11,14,05,16.20
2012,09,11,14,06,16.20
2012,09,11,14,07,16.10
2012,09,11,14,08,15.90
2012,09,11,14,09,15.80
2012,09,11,14,10,15.80
2012,09,11,14,11,15.80
2012,09,11,14,12,15.90
2012,09,11,14,13,15.90
2012,09,11,14,14,16.00
2012,09,11,14,15,16.10
2012,09,11,14,16,16.10
2012,09,11,14,17,16.10
2012,09,11,14,18,16.10
2012,09,11,14,19,16.10
2012,09,11,14,20,16.10
2012,09,11,14,21,16.00
2012,09,11,14,22,15.90
2012,09,11,14,23,15.80
2012,09,11,14,24,15.70
2012,09,11,14,25,15.60
2012,09,11,14,26,15.70
2012,09,11,14,27,15.70
2012,09,11,14,28,15.70
2012,09,11,14,29,15.80
2012,09,11,14,30,15.80
2012,09,11,14,31,15.80
2012,09,11,14,32,15.90
2012,09,11,14,33,16.00
2012,09,11,14,34,16.10
2012,09,11,14,35,16.10
2012,09,11,14,36,16.20
2012,09,11,14,37,16.30
2012,09,11,14,38,16.30
2012,09,11,14,39,16.30
2012,09,11,14,40,16.30
2012,09,11,14,41,16.30
2012,09,11,14,42,16.40
2012,09,11,14,43,16.40
2012,09,11,14,44,16.60
2012,09,11,14,45,16.70
2012,09,11,14,46,16.70
2012,09,11,14,47,16.70
2012,09,11,14,48,16.60
2012,09,11,14,49,16.60
2012,09,11,14,50,16.50
2012,09,11,14,51,16.40
2012,09,11,14,52,16.40
2012,09,11,14,53,16.40
2012,09,11,14,54,16.40
2012,09,11,14,55,16.50
2012,09,11,14,56,16.60
2012,09,11,14,57,16.60
2012,09,11,14,58,16.80
2012,09,11,14,59,16.80
2012,09,11,15,00,16.90
2012,09,11,15,01,16.90
2012,09,11,15,02,17.00
2012,09,11,15,03,17.10
2012,09,11,15,04,17.30
2012,09,11,15,05,17.30
2012,09,11,15,06,17.40
2012,09,11,15,07,17.40
2012,09,11,15,08,17.40
2012,09,11,15,09,17.30
2012,09,11,15,10,17.30
2012,09,11,15,11,17.10
2012,09,11,15,12,16.90
2012,09,11,15,13,16.60
2012,09,11,15,14,16.50
2012,09,11,15,15,16.40
2012,09,11,15,16,16.30
2012,09,11,15,17,16.30
2012,09,11,15,18,16.30
2012,09,11,15,19,16.30
2012,09,11,15,20,16.40
2012,09,11,15,21,16.40
2012,09,11,15,22,16.60
2012,09,11,15,23,16.70
2012,09,11,15,24,16.70
2012,09,11,15,25,16.70
2012,09,11,15,26,16.70
2012,09,11,15,27,16.70
2012,09,11,15,28,16.60
2012,09,11,15,29,16.60
2012,09,11,15,30,16.70
2012,09,11,15,31,16.70
2012,09,11,15,32,16.70
2012,09,11,15,33,16.80
2012,09,11,15,34,16.80
2012,09,11,15,35,16.70
2012,09,11,15,36,16.70
2012,09,11,15,37,16.80
2012,09,11,15,38,16.80
2012,09,11,15,39,16.70
2012,09,11,15,40,16.60
2012,09,11,15,41,16.60
2012,09,11,15,42,16.50
2012,09,11,15,43,16.40
2012,09,11,15,44,16.30
2012,09,11,15,45,16.20
2012,09,11,15,46,16.10
2012,09,11,15,47,16.10
2012,09,11,15,48,16.20
2012,09,11,15,49,16.10
2012,09,11,15,50,16.10
2012,09,11,15,51,16.10
2012,09,11,15,52,16.10
2012,09,11,15,53,16.00
2012,09,11,15,54,15.90
2012,09,11,15,55,15.80
2012,09,11,15,56,15.80
2012,09,11,15,57,15.70
2012,09,11,15,58,15.60
2012,09,11,15,59,15.50
2012,09,11,16,00,15.50
2012,09,11,16,01,15.40
2012,09,11,16,02,15.30
2012,09,11,16,03,15.30
2012,09,11,16,04,15.40
2012,09,11,16,05,15.40
2012,09,11,16,06,15.40
2012,09,11,16,07,15.40
2012,09,11,16,08,15.50
2012,09,11,16,09,15.50
2012,09,11,16,10,15.50
2012,09,11,16,11,15.60
2012,09,11,16,12,15.80
2012,09,11,16,13,15.70
2012,09,11,16,14,15.70
2012,09,11,16,15,15.70
2012,09,11,16,16,15.90
2012,09,11,16,17,16.00
2012,09,11,16,18,16.10
2012,09,11,16,19,16.20
2012,09,11,16,20,16.20
2012,09,11,16,21,16.20
2012,09,11,16,22,16.20
2012,09,11,16,23,16.30
2012,09,11,16,24,16.30
2012,09,11,16,25,16.30
2012,09,11,16,26,16.30
2012,09,11,16,27,16.40
2012,09,11,16,28,16.60
2012,09,11,16,29,16.70
2012,09,11,16,30,16.70
2012,09,11,16,31,16.70
2012,09,11,16,32,16.60
2012,09,11,16,33,16.50
2012,09,11,16,34,16.40
2012,09,11,16,35,16.30
2012,09,11,16,36,16.30
2012,09,11,16,37,16.20
2012,09,11,16,38,16.10
2012,09,11,16,39,16.00
2012,09,11,16,40,15.90
2012,09,11,16,41,16.00
2012,09,11,16,42,16.10
2012,09,11,16,43,16.10
2012,09,11,16,44,16.10
2012,09,11,16,45,15.90
2012,09,11,16,46,15.80
2012,09,11,16,47,15.80
2012,09,11,16,48,15.80
2012,09,11,16,49,15.80
2012,09,11,16,50,15.80
2012,09,11,16,51,15.90
2012,09,11,16,52,16.00
2012,09,11,16,53,16.10
2012,09,11,16,54,16.20
2012,09,11,16,55,16.30
2012,09,11,16,56,16.40
2012,09,11,16,57,16.40
2012,09,11,16,58,16.40
2012,09,11,16,59,16.40
2012,09,11,17,00,16.30
2012,09,11,17,01,16.30
2012,09,11,17,02,16.30
2012,09,11,17,03,16.30
2012,09,11,17,04,16.20
2012,09,11,17,05,16.10
2012,09,11,17,06,16.10
2012,09,11,17,07,16.10
2012,09,11,17,08,16.00
2012,09,11,17,09,15.90
2012,09,11,17,10,15.80
2012,09,11,17,11,15.80
2012,09,11,17,12,15.70
2012,09,11,17,13,15.60
2012,09,11,17,14,15.60
2012,09,11,17,15,15.50
2012,09,11,17,16,15.60
2012,09,11,17,17,15.50
2012,09,11,17,18,15.50
2012,09,11,17,19,15.60
2012,09,11,17,20,15.70
2012,09,11,17,21,15.80
2012,09,11,17,22,15.80
2012,09,11,17,23,15.80
2012,09,11,17,24,15.80
2012,09,11,17,25,15.70
2012,09,11,17,26,15.70
2012,09,11,17,27,15.60
2012,09,11,17,28,15.60
2012,09,11,17,29,15.60
2012,09,11,17,30,15.60
2012,09,11,17,31,15.60
2012,09,11,17,32,15.60
2012,09,11,17,33,15.60
2012,09,11,17,34,15.50
2012,09,11,17,35,15.50
2012,09,11,17,36,15.50